This demonstration page uses our WeatherBlox Daily Observations layout. Learn more.

Left ArrowRight Arrow

Hourly Observations for February 7, 2019

Temp ( °F °C ) Dew Point ( °F °C ) Humidity (%) Winds ( mph kmh ) Pressure ( in mb ) Visibility ( mi km ) Precip ( " mm )
12:15 am 00:15 Cloudy 41 5 41 5 100 100 NNW 5 7 29.99 1015 1 2 N/A
12:16 am 00:16 Cloudy 41 5 41 5 100 100 NNW 5 7 29.99 1015 1 2 N/A
12:35 am 00:35 Cloudy 41 5 41 5 100 100 NE 5 7 29.97 1015 1 2 N/A
12:55 am 00:55 Cloudy 41 5 41 5 100 100 NE 5 7 29.97 1015 1 1 N/A
12:56 am 00:56 Cloudy 41 5 41 5 100 100 NE 3 6 29.97 1015 1 1 N/A
1:15 am 01:15 Cloudy 39 4 39 4 100 100 ESE 5 7 29.97 1015 0 0 N/A
1:16 am 01:16 Cloudy 39 4 39 4 100 100 ESE 5 7 29.97 1015 0 0 N/A
1:35 am 01:35 Cloudy 41 5 41 5 100 100 N N/A 29.96 1014 0 0 N/A
1:55 am 01:55 Cloudy 41 5 41 5 100 100 E 3 6 29.93 1013 0 0 N/A
1:56 am 01:56 Cloudy 41 5 41 5 100 100 E 3 6 29.94 1014 0 0 N/A
2:15 am 02:15 Cloudy 41 5 41 5 100 100 E 3 6 29.94 1014 0 0 N/A
2:35 am 02:35 Cloudy 41 5 41 5 100 100 ENE 5 7 29.93 1013 0 0 N/A
2:55 am 02:55 Cloudy 41 5 41 5 100 100 NNE 6 9 29.95 1014 0 0 N/A
2:56 am 02:56 Cloudy 41 5 41 5 100 100 NNE 6 9 29.95 1014 0 0 N/A
3:15 am 03:15 Cloudy 41 5 41 5 100 100 N N/A 29.95 1014 0 0 N/A
3:35 am 03:35 Cloudy 41 5 41 5 100 100 ESE 5 7 29.95 1014 0 0 N/A
3:36 am 03:36 Cloudy 41 5 41 5 100 100 ESE 5 7 29.95 1014 0 0 N/A
3:55 am 03:55 Cloudy 43 6 43 6 100 100 E 5 7 29.93 1014 0 0 N/A
3:56 am 03:56 Cloudy 43 6 43 6 100 100 E 5 7 29.93 1014 0 0 N/A
4:15 am 04:15 Cloudy 41 5 41 5 100 100 ESE 7 11 29.92 1013 0 0 N/A
4:35 am 04:35 Cloudy 43 6 43 6 100 100 SE 6 9 29.90 1013 0 0 N/A
4:36 am 04:36 Cloudy 43 6 43 6 100 100 SE 6 9 29.91 1013 0 0 N/A
4:55 am 04:55 Cloudy 43 6 43 6 100 100 SE 3 6 29.91 1013 1 1 N/A
4:56 am 04:56 Cloudy 43 6 43 6 100 100 SE 3 6 29.91 1013 1 1 N/A
5:15 am 05:15 Cloudy 45 7 45 7 100 100 SE 6 9 29.91 1013 1 1 N/A
5:35 am 05:35 Cloudy 45 7 45 7 100 100 SSE 7 11 29.89 1012 1 1 N/A
5:36 am 05:36 Cloudy 45 7 45 7 100 100 SSE 7 11 29.89 1012 1 1 N/A
5:55 am 05:55 Cloudy 45 7 45 7 100 100 SE 7 11 29.86 1011 1 1 N/A
5:56 am 05:56 Cloudy 45 7 45 7 100 100 SE 7 11 29.86 1011 1 1 N/A
6:15 am 06:15 Cloudy 46 8 46 8 100 100 SE 7 11 29.85 1011 1 1 N/A
6:35 am 06:35 Cloudy 46 8 46 8 100 100 N N/A 29.87 1011 1 1 N/A
6:36 am 06:36 Cloudy 46 8 46 8 100 100 N N/A 29.87 1011 1 1 N/A
6:55 am 06:55 Cloudy 45 7 45 7 100 100 SSW 5 7 29.90 1013 1 1 N/A
6:56 am 06:56 Cloudy 46 8 46 8 100 100 S 5 7 29.90 1012 1 1 N/A
7:15 am 07:15 Cloudy 46 8 46 8 100 100 SE 5 7 29.86 1011 1 1 N/A
7:35 am 07:35 Cloudy 46 8 46 8 100 100 SE 3 6 29.86 1011 1 1 N/A
7:36 am 07:36 Cloudy 46 8 46 8 100 100 SE 3 6 29.86 1011 1 1 N/A
7:55 am 07:55 Cloudy 46 8 46 8 100 100 SSE 3 6 29.88 1012 1 1 N/A
8:15 am 08:15 Cloudy 46 8 46 8 100 100 SE 3 6 29.88 1012 1 1 N/A
8:35 am 08:35 Cloudy 46 8 46 8 100 100 SSE 3 6 29.88 1012 1 1 N/A
8:36 am 08:36 Cloudy 46 8 46 8 100 100 N N/A 29.88 1012 1 1 N/A
8:55 am 08:55 Cloudy 46 8 46 8 100 100 SE 3 6 29.87 1011 1 1 N/A
9:15 am 09:15 Cloudy 46 8 46 8 100 100 ESE 7 11 29.84 1010 1 2 N/A
9:35 am 09:35 Cloudy 48 9 48 9 100 100 SE 7 11 29.83 1010 3 4 N/A
9:36 am 09:36 Cloudy 48 9 48 9 100 100 SE 8 13 29.82 1010 2 3 N/A
9:55 am 09:55 Cloudy 50 10 50 10 100 100 SE 12 19 29.78 1008 2 3 N/A
10:15 am 10:15 Cloudy 50 10 50 10 100 100 SE 14 22 29.75 1007 4 6 N/A
10:16 am 10:16 Cloudy 50 10 50 10 100 100 SE 14 22 29.75 1007 4 6 N/A
10:35 am 10:35 Cloudy 50 10 50 10 100 100 SSE 7 11 29.79 1009 3 5 N/A
10:36 am 10:36 Cloudy 50 10 50 10 100 100 S 8 13 29.80 1009 3 5 N/A
10:55 am 10:55 Cloudy 52 11 52 11 100 100 SSE 8 13 29.80 1009 2 3 N/A
11:15 am 11:15 Cloudy 52 11 52 11 100 100 SE 10 17 29.80 1009 2 3 N/A
11:16 am 11:16 Cloudy 52 11 52 11 100 100 SE 10 17 29.80 1009 2 3 N/A
11:35 am 11:35 Cloudy 52 11 52 11 100 100 SE 8 13 29.78 1008 1 2 N/A
11:55 am 11:55 Cloudy 52 11 52 11 100 100 ESE 9 15 29.77 1008 1 1 N/A
12:15 pm 12:15 Cloudy 52 11 52 11 100 100 SE 10 17 29.74 1007 5 8 N/A
12:16 pm 12:16 Cloudy 52 11 52 11 100 100 SE 10 17 29.74 1007 7 11 N/A
12:35 pm 12:35 Cloudy 52 11 52 11 100 100 SE 9 15 29.72 1006 3 5 N/A
12:55 pm 12:55 Cloudy 52 11 52 11 100 100 SE 9 15 29.72 1006 3 5 N/A
12:56 pm 12:56 Cloudy 52 11 52 11 100 100 SE 8 13 29.72 1006 4 6 N/A
1:15 pm 13:15 Cloudy 52 11 52 11 100 100 SE 7 11 29.73 1007 3 5 N/A
1:16 pm 13:16 Cloudy 52 11 52 11 100 100 SE 6 9 29.73 1007 3 4 N/A
1:35 pm 13:35 Cloudy 52 11 52 11 100 100 SE 6 9 29.73 1007 3 5 N/A
1:55 pm 13:55 Cloudy 52 11 52 11 100 100 SSE 7 11 29.72 1006 4 6 N/A
1:56 pm 13:56 Cloudy 52 11 52 11 100 100 SSE 7 11 29.72 1006 4 6 N/A
2:15 pm 14:15 Cloudy 54 12 54 12 100 100 SE 14 22 29.64 1004 4 6 N/A
2:35 pm 14:35 Cloudy 55 13 55 13 100 100 SSE 15 24 29.63 1003 7 11 N/A
2:55 pm 14:55 Cloudy 55 13 55 13 100 100 S 14 22 29.65 1004 10 16 N/A
2:56 pm 14:56 Cloudy 55 13 55 13 100 100 S 15 24 29.65 1004 10 16 N/A
3:15 pm 15:15 Cloudy 55 13 55 13 100 100 S 10 17 29.66 1004 10 16 N/A
3:35 pm 15:35 Cloudy 55 13 55 13 100 100 S 16 26 29.61 1003 10 16 N/A
3:55 pm 15:55 Cloudy 55 13 55 13 100 100 SSW 15 24 29.64 1004 10 16 N/A
3:56 pm 15:56 Cloudy 57 14 57 14 100 100 S 14 22 29.64 1004 10 16 N/A
4:15 pm 16:15 Cloudy 57 14 57 14 100 100 SSW 18 30 29.64 1004 10 16 N/A
4:35 pm 16:35 Cloudy 57 14 57 14 100 100 SSW 14 22 29.66 1004 4 6 N/A
4:36 pm 16:36 Cloudy 57 14 57 14 100 100 SSW 14 22 29.66 1004 4 6 N/A
4:55 pm 16:55 Cloudy 57 14 57 14 100 100 SSW 15 24 29.65 1004 5 8 N/A
5:15 pm 17:15 Cloudy 57 14 57 14 100 100 SSW 17 28 29.66 1004 3 4 N/A
5:35 pm 17:35 Cloudy 50 10 50 10 100 100 W 31 50 29.72 1006 2 3 N/A
5:36 pm 17:36 Cloudy 50 10 50 10 100 100 W 31 50 29.72 1006 2 3 N/A
5:55 pm 17:55 Cloudy 41 5 41 5 100 100 W 37 59 29.79 1009 2 2 N/A
6:15 pm 18:15 Cloudy 39 4 39 4 100 100 W 30 48 29.81 1010 5 8 N/A
6:16 pm 18:16 Cloudy 39 4 39 4 100 100 W 32 52 29.81 1010 5 8 N/A
6:35 pm 18:35 Cloudy 37 3 37 3 100 100 W 26 43 29.83 1010 7 11 N/A
6:55 pm 18:55 Cloudy 37 3 37 3 100 100 W 24 39 29.85 1011 10 16 N/A
7:15 pm 19:15 Cloudy 36 2 36 2 100 100 W 24 39 29.87 1011 10 16 N/A
7:16 pm 19:16 Cloudy 36 2 36 2 100 100 W 23 37 29.87 1011 10 16 N/A
7:35 pm 19:35 Cloudy 36 2 36 2 100 100 W 18 30 29.89 1012 10 16 N/A
7:55 pm 19:55 Cloudy 36 2 36 2 100 100 W 21 33 29.91 1013 10 16 N/A
8:15 pm 20:15 Cloudy 34 1 34 1 100 100 W 22 35 29.92 1013 10 16 N/A
8:16 pm 20:16 Cloudy 34 1 34 1 100 100 W 25 41 29.93 1014 10 16 N/A
8:35 pm 20:35 Cloudy 32 undefined 32 undefined 100 100 W 22 35 29.95 1014 10 16 N/A
8:55 pm 20:55 Cloudy 32 undefined 32 undefined 100 100 W 20 31 29.98 1015 10 16 N/A
9:15 pm 21:15 Cloudy 32 undefined 32 undefined 100 100 W 28 44 29.97 1015 10 16 N/A
9:16 pm 21:16 Cloudy 32 undefined 32 undefined 100 100 W 26 43 29.98 1015 10 16 N/A
9:35 pm 21:35 Cloudy 32 undefined 30 -1 93 93 W 21 33 30.02 1016 10 16 N/A
9:55 pm 21:55 Cloudy 30 -1 30 -1 100 100 W 25 41 30.02 1017 10 16 N/A
10:15 pm 22:15 Cloudy 30 -1 30 -1 100 100 W 24 39 30.03 1017 10 16 N/A
10:16 pm 22:16 Cloudy 28 -2 28 -2 100 100 W 23 37 30.03 1017 10 16 N/A
10:35 pm 22:35 Cloudy 28 -2 28 -2 100 100 W 28 44 30.06 1018 10 16 N/A

Powered by AerisWeather